Keflavik, Iceland

12:07 PM GMT on September 26, 2017 (GMT +0000)
Keflavik

Weather History for BIKF - February, 2013

Change the Weather History Date:

Saturday, February 16, 2013

  Actual Average Record
Temperature  
Mean Temperature 34 °F -  
Max Temperature 37 °F 36 °F 48 °F (2003)
Min Temperature 32 °F 27 °F 21 °F (1999)
Degree Days  
Heating Degree Days 30    
Moisture  
Dew Point 26 °F    
Average Humidity 68    
Maximum Humidity 83    
Minimum Humidity 55    
Precipitation  
Precipitation 0.00 in - - ()
Sea Level Pressure  
Sea Level Pressure 29.77 in    
Wind  
Wind Speed 14 mph ()    
Max Wind Speed 23 mph    
Max Gust Speed -    
Visibility 6.2 miles    
Events      
Averages and records for this station are not official NWS values.
T = Trace of Precipitation, MM = Missing Value Source: Averaged Metar Reports

Daily Weather History Graph

Daily Weather History Graph

Search for Another Location

Airport or City:

Trip Planner

Search our weather history database for the weather conditions in past years. The results will help you decide how hot, cold, wet, or windy it might be!

Date:

Astronomy

Feb. 16, 2013 Rise Set
Actual Time 9:21 AM GMT 6:09 PM GMT
Civil Twilight 8:30 AM GMT 6:59 PM GMT
Nautical Twilight 7:35 AM GMT 7:55 PM GMT
Astronomical Twilight 6:40 AM GMT 8:50 PM GMT
Moon 9:56 AM GMT (2/16) 2:22 AM GMT (2/16)
Length of Visible Light 10h 29m
Length of Day
8h 47m
Waxing Crescent, 37% of the Moon is Illuminated
Feb 16
Waxing Crescent
Feb 17
First Quarter
Feb 25
Full
Mar 4
Last Quarter
Mar 11
New

Hourly Weather History & Observations

Time (GMT) Temp. Windchill Dew Point Humidity Pressure Visibility Wind Dir Wind Speed Gust Speed Precip Events Conditions
12:00 AM 33 °F - 24 °F 58% 29.83 in 37 mi NE 12.7 mph - -   Scattered Clouds
12:00 AM 33.8 °F 24.8 °F 24.8 °F 70% 29.80 in - NE 12.7 mph - N/A   Clear
12:30 AM 32.0 °F 22.5 °F 24.8 °F 75% 29.80 in - ENE 12.7 mph - N/A   Clear
1:00 AM 33.8 °F 25.3 °F 23.0 °F 65% 29.80 in - NE 11.5 mph - N/A   Clear
1:30 AM 33.8 °F 24.3 °F 23.0 °F 65% 29.80 in - NE 13.8 mph - N/A   Clear
2:00 AM 32.0 °F 21.2 °F 23.0 °F 69% 29.80 in - NE 16.1 mph - N/A   Clear
2:30 AM 32.0 °F 21.6 °F 24.8 °F 75% 29.80 in 6.2 mi ENE 15.0 mph - N/A   Partly Cloudy
3:00 AM 33.8 °F 23.5 °F 24.8 °F 70% 29.77 in 6.2 mi NE 16.1 mph - N/A   Partly Cloudy
3:30 AM 33.8 °F 24.8 °F 26.6 °F 75% 29.77 in 6.2 mi NE 12.7 mph - N/A   Partly Cloudy
4:00 AM 33.8 °F 23.5 °F 24.8 °F 70% 29.77 in 6.2 mi NE 16.1 mph - N/A   Scattered Clouds
4:30 AM 33.8 °F 24.8 °F 24.8 °F 70% 29.77 in 6.2 mi NE 12.7 mph - N/A   Scattered Clouds
5:00 AM 33.8 °F 23.9 °F 24.8 °F 70% 29.77 in 6.2 mi NE 15.0 mph - N/A   Scattered Clouds
5:30 AM 33.8 °F 23.5 °F 23.0 °F 65% 29.77 in 6.2 mi ENE 16.1 mph - N/A   Scattered Clouds
6:00 AM 34 °F - 24 °F 57% 29.80 in 37 mi NE 13.8 mph - -   Partly Cloudy
6:00 AM 33.8 °F 24.3 °F 24.8 °F 70% 29.77 in 6.2 mi NE 13.8 mph - N/A   Mostly Cloudy
6:30 AM 33.8 °F 23.9 °F 24.8 °F 70% 29.77 in 6.2 mi ENE 15.0 mph - N/A   Mostly Cloudy
7:00 AM 33.8 °F 23.9 °F 24.8 °F 70% 29.77 in 6.2 mi ENE 15.0 mph - N/A   Mostly Cloudy
7:30 AM 33.8 °F 23.9 °F 24.8 °F 70% 29.77 in 6.2 mi ENE 15.0 mph - N/A   Mostly Cloudy
8:00 AM 33.8 °F 24.8 °F 24.8 °F 70% 29.77 in 6.2 mi ENE 12.7 mph - N/A   Mostly Cloudy
8:30 AM 33.8 °F 23.9 °F 24.8 °F 70% 29.77 in - NE 15.0 mph - N/A   Clear
9:00 AM 33.8 °F 24.3 °F 24.8 °F 70% 29.77 in - ENE 13.8 mph - N/A   Clear
9:30 AM 33.8 °F 23.5 °F 24.8 °F 70% 29.77 in - ENE 16.1 mph - N/A   Clear
10:00 AM 33.8 °F 24.3 °F 24.8 °F 70% 29.77 in - ENE 13.8 mph - N/A   Clear
10:30 AM 33.8 °F 23.5 °F 24.8 °F 70% 29.80 in 6.2 mi NE 16.1 mph - N/A   Mostly Cloudy
11:00 AM 35.6 °F 26.6 °F 24.8 °F 65% 29.80 in 6.2 mi NE 13.8 mph - N/A   Mostly Cloudy
11:30 AM 35.6 °F 26.6 °F 24.8 °F 65% 29.80 in 6.2 mi NE 13.8 mph - N/A   Mostly Cloudy
12:00 PM 35 °F - 32 °F 83% 29.82 in 47 mi NE 15.0 mph - -   Scattered Clouds
12:00 PM 35.6 °F 26.2 °F 24.8 °F 65% 29.80 in 6.2 mi NE 15.0 mph - N/A   Mostly Cloudy
12:30 PM 35.6 °F 27.5 °F 26.6 °F 70% 29.80 in 6.2 mi ENE 11.5 mph - N/A   Mostly Cloudy
1:00 PM 35.6 °F 25.9 °F 24.8 °F 65% 29.80 in - ENE 16.1 mph - N/A   Clear
1:30 PM 35.6 °F 26.6 °F 24.8 °F 65% 29.80 in - ENE 13.8 mph - N/A   Clear
2:00 PM 35.6 °F 26.2 °F 26.6 °F 70% 29.77 in - NE 15.0 mph - N/A   Clear
2:30 PM 37.4 °F 30.3 °F 26.6 °F 65% 29.77 in - ENE 10.4 mph - N/A   Clear
3:00 PM 37.4 °F 28.2 °F 26.6 °F 65% 29.77 in - ENE 16.1 mph - N/A   Clear
3:30 PM 37.4 °F 27.5 °F 26.6 °F 65% 29.74 in - NE 18.4 mph - N/A   Clear
4:00 PM 37.4 °F 28.9 °F 26.6 °F 65% 29.74 in - NE 13.8 mph - N/A   Clear
4:30 PM 37.4 °F 28.5 °F 26.6 °F 65% 29.74 in - NE 15.0 mph - N/A   Clear
5:00 PM 37.4 °F 28.2 °F 26.6 °F 65% 29.74 in - NE 16.1 mph - N/A   Clear
5:30 PM 37.4 °F 27.8 °F 26.6 °F 65% 29.74 in - NE 17.3 mph - N/A   Clear
6:00 PM 36 °F - 26 °F 55% 29.77 in 37 mi NE 16.1 mph - -   Mostly Cloudy
6:00 PM 37.4 °F 28.2 °F 28.4 °F 70% 29.74 in - NE 16.1 mph - N/A   Clear
6:30 PM 37.4 °F 27.2 °F 28.4 °F 70% 29.74 in - NE 19.6 mph - N/A   Clear
7:00 PM 37.4 °F 27.5 °F 28.4 °F 70% 29.74 in - NE 18.4 mph - N/A   Clear
7:30 PM 37.4 °F 27.5 °F 28.4 °F 70% 29.74 in 6.2 mi ENE 18.4 mph - N/A   Mostly Cloudy
8:00 PM 37.4 °F 27.5 °F 28.4 °F 70% 29.74 in 6.2 mi ENE 18.4 mph - N/A   Mostly Cloudy
8:30 PM 37.4 °F 26.9 °F 28.4 °F 70% 29.74 in 6.2 mi ENE 20.7 mph - N/A   Mostly Cloudy
9:00 PM 35.6 °F 24.2 °F 28.4 °F 75% 29.71 in 6.2 mi ENE 21.9 mph - N/A   Overcast
9:30 PM 35.6 °F 24.5 °F 28.4 °F 75% 29.71 in 6.2 mi ENE 20.7 mph - N/A   Overcast
10:00 PM 35.6 °F 24.0 °F 26.6 °F 70% 29.71 in 6.2 mi ENE 23.0 mph - N/A   Overcast
10:30 PM 35.6 °F 24.5 °F 26.6 °F 70% 29.71 in 6.2 mi ENE 20.7 mph - N/A   Overcast
11:00 PM 35.6 °F 24.8 °F 26.6 °F 70% 29.71 in 6.2 mi ENE 19.6 mph - N/A   Overcast
11:30 PM 35.6 °F 24.5 °F 26.6 °F 70% 29.71 in - ENE 20.7 mph - N/A   Clear